Location: Newark
(15.4608°S, 41.1635°W)
Time: 19:59:01
(UTC+00:00)

Altair - All Passes

Search period start: 29 July 2021 00:00
Search period end: 08 August 2021 00:00
Orbit: 1501 x 1682 km, 47.2° (Epoch: 28 July)

Date Brightness Start Highest point End Pass type
(mag) Time Alt. Az. Time Alt. Az. Time Alt. Az.
29 Jul - 00:42:27 10° SW 00:52:34 72° SE 01:02:17 10° NE visible
29 Jul - 02:49:13 10° WSW 02:56:52 26° NW 03:04:18 10° N night (unlit)
29 Jul - 13:41:18 10° N 13:49:45 37° NE 13:58:30 10° ESE daylight
29 Jul - 15:44:55 10° WNW 15:54:14 53° SW 16:03:58 10° SSE daylight
29 Jul - 17:56:11 10° SW 18:01:05 14° SSW 18:06:04 10° S daylight
29 Jul - 22:14:41 10° S 22:20:57 18° SSE 22:27:08 10° ESE visible
30 Jul - 00:17:17 10° SW 00:27:21 65° SE 00:37:02 10° NE visible
30 Jul - 02:23:34 10° WSW 02:31:43 29° NW 02:39:39 10° N night (unlit)
30 Jul - 13:16:30 10° N 13:24:37 33° NE 13:32:59 10° ESE daylight
30 Jul - 15:19:37 10° WNW 15:29:00 58° SW 15:38:49 10° SSE daylight
30 Jul - 17:30:10 10° WSW 17:35:37 16° SSW 17:41:11 10° S daylight
30 Jul - 21:49:45 10° S 21:55:30 16° SSE 22:01:10 10° ESE visible
30 Jul - 23:52:07 10° SSW 00:02:07 59° SE 00:11:44 10° ENE visible
31 Jul - 01:58:00 10° WSW 02:06:34 33° NW 02:14:53 10° N night (unlit)
31 Jul - 12:51:45 10° N 12:59:29 29° NE 13:07:25 10° ESE daylight
31 Jul - 14:54:20 10° NW 15:03:47 64° SW 15:13:40 10° SE daylight
31 Jul - 17:04:13 10° WSW 17:10:10 17° SSW 17:16:14 10° S daylight
31 Jul - 21:24:52 10° S 21:30:01 15° SSE 21:35:08 10° ESE visible
31 Jul - 23:27:00 10° SSW 23:36:52 53° SE 23:46:24 10° ENE visible
01 Aug - 01:32:30 10° WSW 01:41:25 37° NW 01:50:05 10° N visible
01 Aug - 12:27:05 10° N 12:34:21 25° NE 12:41:47 10° ESE daylight
01 Aug - 14:29:05 10° NW 14:38:34 71° SW 14:48:30 10° SE daylight
01 Aug - 16:38:21 10° WSW 16:44:44 19° SSW 16:51:17 10° S daylight
01 Aug - 21:00:01 10° S 21:04:32 13° SSE 21:09:00 10° SE visible
01 Aug - 23:01:52 10° SSW 23:11:36 49° SE 23:21:03 10° ENE visible
02 Aug - 01:07:02 10° WSW 01:16:16 42° NW 01:25:13 10° NNE visible
02 Aug - 12:02:30 10° N 12:09:13 22° NE 12:16:04 10° E daylight
02 Aug - 14:03:53 10° NW 14:13:22 78° SW 14:23:19 10° SE daylight
02 Aug - 16:12:32 10° WSW 16:19:19 21° SSW 16:26:18 10° SSE daylight
02 Aug - 20:35:17 10° S 20:39:01 12° SSE 20:42:44 10° SE daylight
02 Aug - 22:36:45 10° SSW 22:46:20 44° SE 22:55:38 10° ENE visible
03 Aug - 00:41:37 10° WSW 00:51:06 47° NW 01:00:19 10° NNE visible
03 Aug - 11:38:02 10° NNE 11:44:04 19° NE 11:50:13 10° E daylight
03 Aug - 13:38:43 10° NW 13:48:11 85° SW 13:58:07 10° SE daylight
03 Aug - 15:46:48 10° W 15:53:56 22° SSW 16:01:18 10° SSE daylight
03 Aug - 20:10:41 10° S 20:13:29 11° SSE 20:16:16 10° SE daylight
03 Aug - 22:11:39 10° SSW 22:21:02 40° SE 22:30:11 10° ENE visible
04 Aug - 00:16:14 10° SW 00:25:56 53° NW 00:35:21 10° NNE visible
04 Aug - 11:13:43 10° NNE 11:18:56 16° NE 11:24:14 10° E daylight
04 Aug - 13:13:35 10° NW 13:23:00 87° NE 13:32:54 10° SE daylight
04 Aug - 15:21:07 10° W 15:28:34 25° SW 15:36:17 10° SSE daylight
04 Aug - 19:46:35 10° SSE 19:47:56 10° SSE 19:49:17 10° SSE daylight
04 Aug - 21:46:34 10° SSW 21:55:44 37° SE 22:04:41 10° ENE visible
04 Aug - 23:50:53 10° SW 00:00:46 59° NW 00:10:22 10° NNE visible
05 Aug - 10:49:40 10° NNE 10:53:47 14° NE 10:57:58 10° E daylight
05 Aug - 12:48:28 10° NW 12:57:50 79° NE 13:07:39 10° SE daylight
05 Aug - 14:55:28 10° W 15:03:13 27° SW 15:11:15 10° SSE daylight
05 Aug - 21:21:30 10° SSW 21:30:25 33° SE 21:39:09 10° E visible
05 Aug - 23:25:33 10° SW 23:35:36 66° NW 23:45:20 10° NNE visible
06 Aug - 01:38:26 10° WNW 01:39:47 10° NW 01:41:08 10° NW visible
06 Aug - 10:26:11 10° NE 10:28:39 11° NE 10:31:07 10° ENE daylight
06 Aug - 12:23:24 10° NNW 12:32:41 71° NE 12:42:23 10° SE daylight
06 Aug - 14:29:53 10° W 14:37:53 30° SW 14:46:12 10° SSE daylight
06 Aug - 20:56:26 10° SSW 21:05:05 30° SE 21:13:34 10° E visible
06 Aug - 23:00:16 10° SW 23:10:25 73° NW 23:20:16 10° NNE visible
07 Aug - 01:10:48 10° WNW 01:14:36 13° NW 01:18:23 10° NNW visible
07 Aug - 11:58:22 10° NNW 12:07:32 64° NE 12:17:06 10° SE daylight
07 Aug - 14:04:21 10° W 14:12:35 32° SW 14:21:08 10° SSE daylight
07 Aug - 20:31:24 10° SSW 20:39:44 28° SE 20:47:55 10° E daylight
07 Aug - 22:35:01 10° SW 22:45:13 80° NW 22:55:09 10° NE visible
